Lafayette, CO

3:50 AM MDT on July 30, 2016 (GMT -0600)
Erie Municipal Airport

Weather History for KEIK - February, 2014

Change the Weather History Date:

Sunday, February 23, 2014

  Actual Average (KBDU) Record (KBDU)
Temperature  
Mean Temperature 33 °F -  
Max Temperature 42 °F - 41 °F (2014)
Min Temperature 24 °F - 8 °F (2015)
Degree Days  
Heating Degree Days 32    
Month to date heating degree days  
Cooling Degree Days 0    
Month to date cooling degree days  
Moisture  
Dew Point 27 °F    
Average Humidity 91    
Maximum Humidity 100    
Minimum Humidity 60    
Precipitation  
Precipitation 0.00 in - 0.04 in (2016)
Sea Level Pressure  
Sea Level Pressure 29.98 in    
Wind  
Wind Speed 2 mph (NE)    
Max Wind Speed 9 mph    
Max Gust Speed -    
Visibility 7 miles    
Events Fog    
T = Trace of Precipitation, MM = Missing Value Source: NWS Daily Summary

Daily Weather History Graph

Daily Weather History Graph

Search for Another Location

Airport or City:

Trip Planner

Search our weather history database for the weather conditions in past years. The results will help you decide how hot, cold, wet, or windy it might be!

Date:

Astronomy

Feb. 23, 2014 Rise Set
Actual Time 6:42 AM MST 5:45 PM MST
Civil Twilight 6:14 AM MST 6:12 PM MST
Nautical Twilight 5:43 AM MST 6:44 PM MST
Astronomical Twilight 5:12 AM MST 7:15 PM MST
Moon 1:43 AM MST (2/23) 11:50 AM MST (2/23)
Length of Visible Light 11h 58m
Length of Day
11h 03m
Last Quarter, 38% of the Moon is Illuminated
Feb 23
Last Quarter
Mar 1
New
Mar 8
First Quarter
Mar 16
Full
Mar 23
Last Quarter

Hourly Weather History & Observations

Time (MST) Temp. Windchill Dew Point Humidity Pressure Visibility Wind Dir Wind Speed Gust Speed Precip Events Conditions
12:16 AM 27.5 °F - 26.4 °F 96% 29.98 in 10.0 mi Calm Calm - N/A   Overcast
12:36 AM 27.3 °F - 26.1 °F 95% 29.98 in 10.0 mi Calm Calm - N/A   Overcast
12:56 AM 27.1 °F - 25.7 °F 94% 29.98 in 10.0 mi Calm Calm - N/A   Overcast
1:16 AM 27.0 °F - 25.5 °F 94% 29.97 in 10.0 mi Calm Calm - N/A   Overcast
1:36 AM 26.4 °F - 25.3 °F 96% 29.97 in 10.0 mi Calm Calm - N/A   Overcast
1:56 AM 26.4 °F - 25.5 °F 96% 29.97 in 10.0 mi Calm Calm - N/A   Overcast
2:16 AM 26.4 °F - 25.5 °F 96% 29.98 in 10.0 mi Calm Calm - N/A   Overcast
2:36 AM 26.2 °F 22.1 °F 25.5 °F 97% 29.97 in 10.0 mi North 3.5 mph - N/A   Overcast
2:56 AM 25.5 °F - 24.8 °F 97% 29.97 in 7.0 mi Calm Calm - N/A   Overcast
3:16 AM 26.6 °F - 25.9 °F 97% 29.96 in 7.0 mi Calm Calm - N/A   Overcast
3:36 AM 26.6 °F 21.2 °F 26.1 °F 98% 29.96 in 10.0 mi NNE 4.6 mph - N/A   Overcast
3:56 AM 27.0 °F 23.0 °F 26.2 °F 97% 29.97 in 7.0 mi NNE 3.5 mph - N/A   Overcast
4:16 AM 27.0 °F 23.0 °F 25.7 °F 95% 29.97 in 10.0 mi NNE 3.5 mph - N/A   Overcast
4:36 AM 27.1 °F 23.2 °F 26.1 °F 96% 29.98 in 7.0 mi NNE 3.5 mph - N/A   Overcast
4:56 AM 27.1 °F 23.2 °F 25.9 °F 95% 29.98 in 10.0 mi NNE 3.5 mph - N/A   Overcast
5:16 AM 27.1 °F 23.2 °F 25.9 °F 95% 29.98 in 10.0 mi NE 3.5 mph - N/A   Overcast
5:36 AM 27.5 °F - 26.4 °F 96% 29.99 in 10.0 mi Calm Calm - N/A   Overcast
5:56 AM 27.5 °F 23.6 °F 26.6 °F 96% 29.99 in 7.0 mi North 3.5 mph - N/A   Overcast
6:16 AM 27.3 °F 18.4 °F 26.4 °F 96% 30.00 in 7.0 mi North 9.2 mph - N/A   Overcast
6:36 AM 25.7 °F 18.0 °F 25.0 °F 97% 30.00 in 7.0 mi NE 6.9 mph - N/A   Overcast
6:56 AM 25.3 °F 17.6 °F 24.8 °F 98% 30.00 in 7.0 mi NNE 6.9 mph - N/A   Overcast
7:16 AM 24.8 °F 17.9 °F 23.9 °F 96% 30.01 in 5.0 mi NNE 5.8 mph - N/A   Overcast
7:36 AM 24.3 °F - 23.5 °F 97% 30.02 in 7.0 mi Calm Calm - N/A   Overcast
7:56 AM 24.3 °F - 23.4 °F 96% 30.02 in 7.0 mi Calm Calm - N/A   Overcast
8:16 AM 24.6 °F 20.3 °F 23.5 °F 96% 30.02 in 7.0 mi ENE 3.5 mph - N/A   Overcast
8:36 AM 24.8 °F 20.5 °F 23.7 °F 96% 30.02 in 5.0 mi ENE 3.5 mph - N/A   Overcast
8:56 AM 25.2 °F 19.5 °F 23.9 °F 95% 30.02 in 5.0 mi NE 4.6 mph - N/A   Overcast
9:16 AM 25.3 °F 18.5 °F 23.9 °F 94% 30.02 in 7.0 mi NNE 5.8 mph - N/A   Overcast
9:36 AM 25.3 °F 19.7 °F 23.9 °F 94% 30.01 in 5.0 mi NNE 4.6 mph - N/A   Overcast
9:56 AM 26.4 °F 22.4 °F 24.8 °F 94% 30.01 in 7.0 mi NNE 3.5 mph - N/A   Overcast
10:16 AM 27.1 °F - 25.5 °F 94% 30.01 in 7.0 mi Calm Calm - N/A   Overcast
10:36 AM 28.4 °F - 26.2 °F 92% 30.01 in 7.0 mi Calm Calm - N/A   Overcast
10:56 AM 29.1 °F - 26.4 °F 90% 30.02 in 7.0 mi Calm Calm - N/A   Overcast
11:16 AM 29.8 °F 24.9 °F 27.3 °F 90% 30.02 in 7.0 mi NE 4.6 mph - N/A   Overcast
11:36 AM 29.3 °F 24.3 °F 27.0 °F 91% 30.02 in 7.0 mi NE 4.6 mph - N/A   Overcast
11:56 AM 29.8 °F - 27.1 °F 90% 30.02 in 7.0 mi Calm Calm - N/A   Overcast
12:16 PM 31.3 °F 25.6 °F 27.9 °F 87% 30.00 in 7.0 mi East 5.8 mph - N/A   Overcast
12:36 PM 32.9 °F - 29.3 °F 87% 29.98 in 10.0 mi Calm Calm - N/A   Overcast
12:56 PM 33.6 °F 29.4 °F 28.4 °F 81% 29.98 in 10.0 mi East 4.6 mph - N/A   Mostly Cloudy
1:16 PM 36.0 °F 33.3 °F 29.7 °F 78% 29.98 in 10.0 mi ESE 3.5 mph - N/A   Mostly Cloudy
1:36 PM 37.4 °F 31.4 °F 30.2 °F 75% 29.97 in 10.0 mi East 8.1 mph - N/A   Scattered Clouds
1:56 PM 38.5 °F 33.4 °F 30.4 °F 73% 29.96 in 10.0 mi East 6.9 mph - N/A   Clear
2:16 PM 40.1 °F 36.9 °F 30.4 °F 68% 29.96 in 10.0 mi East 4.6 mph - N/A   Clear
2:36 PM 40.1 °F 38.0 °F 30.0 °F 67% 29.96 in 10.0 mi East 3.5 mph - N/A   Clear
2:56 PM 41.2 °F - 29.1 °F 62% 29.95 in 10.0 mi Calm Calm - N/A   Clear
3:16 PM - - - N/A% 29.94 in 10.0 mi ENE 3.5 mph - N/A   Clear
3:36 PM 42.6 °F 39.9 °F 29.5 °F 60% 29.94 in 10.0 mi East 4.6 mph - N/A   Clear
3:56 PM 42.3 °F 37.9 °F 30.0 °F 62% 29.94 in 10.0 mi ENE 6.9 mph - N/A   Clear
4:16 PM 42.1 °F 38.4 °F 30.6 °F 64% 29.95 in 10.0 mi North 5.8 mph - N/A   Clear
4:36 PM - - - N/A% 29.95 in 10.0 mi North 8.1 mph - N/A   Clear
4:56 PM - - - N/A% 29.96 in 10.0 mi NNE 6.9 mph - N/A   Clear
5:16 PM 38.8 °F - 30.0 °F 71% 29.95 in 10.0 mi Calm Calm - N/A   Clear
5:36 PM 37.2 °F 34.7 °F 29.1 °F 73% 29.97 in 10.0 mi North 3.5 mph - N/A   Clear
5:56 PM - - - N/A% 29.98 in 10.0 mi NNE 5.8 mph - N/A   Clear
6:16 PM 32.9 °F - 28.2 °F 83% 29.99 in 10.0 mi Calm Calm - N/A   Clear
6:36 PM 33.1 °F 27.7 °F 28.9 °F 85% 29.99 in 10.0 mi NE 5.8 mph - N/A   Clear
6:56 PM 31.8 °F 27.3 °F 28.8 °F 88% 29.99 in 10.0 mi ENE 4.6 mph - N/A   Clear
7:16 PM 30.2 °F 26.7 °F 28.0 °F 92% 30.00 in 10.0 mi North 3.5 mph - N/A   Clear
7:36 PM 29.7 °F 22.8 °F 28.0 °F 94% 30.00 in 10.0 mi North 6.9 mph - N/A   Mostly Cloudy
7:56 PM 28.2 °F 22.0 °F 27.3 °F 96% 30.00 in 3.0 mi NNE 5.8 mph - N/A   Overcast
8:16 PM 28.2 °F 23.1 °F 27.9 °F 99% 30.00 in 1.2 mi East 4.6 mph - N/A   Overcast
8:36 PM 28.4 °F 24.6 °F 28.2 °F 99% 30.00 in 1.5 mi ENE 3.5 mph - N/A   Overcast
8:56 PM 28.2 °F - 28.2 °F 100% 30.00 in 1.0 mi Calm Calm - N/A   Overcast
9:16 PM 28.4 °F - 28.4 °F 100% 29.99 in 1.5 mi Calm Calm - N/A   Overcast
9:36 PM 28.4 °F - 28.4 °F 100% 29.99 in 1.5 mi Calm Calm - N/A   Overcast
9:56 PM 28.4 °F 22.2 °F 28.4 °F 100% 30.00 in 1.5 mi NNE 5.8 mph - N/A   Overcast
10:16 PM 28.4 °F 23.3 °F 28.4 °F 100% 29.99 in 0.5 mi North 4.6 mph - N/A Fog Light Freezing Fog
10:36 PM 27.3 °F 22.0 °F 27.3 °F 100% 29.98 in 0.2 mi NNE 4.6 mph - N/A Fog Light Freezing Fog
10:56 PM 27.5 °F - 27.5 °F 100% 29.99 in 0.2 mi Calm Calm - N/A Fog Light Freezing Fog
11:16 PM 27.5 °F 23.6 °F 27.5 °F 100% 29.96 in 0.2 mi East 3.5 mph - N/A Fog Light Freezing Fog
11:36 PM 27.9 °F - 27.9 °F 100% 29.96 in 0.2 mi Calm Calm - N/A Fog Light Freezing Fog
11:56 PM - - - N/A% 29.96 in 0.5 mi North 3.5 mph - N/A Fog Fog